Regional Weather Roundup
Issued by NWS

Home | Current Version | Previous Version | Text Only | Print | Product List | Glossary Off
Versions: 1 2 3 4 5 6 7 8 9 10 11 12 13 14 15 16 17 18 19 20 21 22 23 24 25 26 27 28 29 30 31 32 33 34 35 36 37 38 39 40 41 42 43 44 45 46 47 48 49 50

000
ASUS45 KABQ 220510
RWRNM
WEATHER ROUNDUP FOR NEW MEXICO
NATIONAL WEATHER SERVICE ALBUQUERQUE NM
1100 PM MDT THU AUG 21 2014

NOTE: "FAIR" MEANS FEW OR NO CLOUDS BELOW 12,000 FEET AGL WITH NO
       SIGNIFICANT WEATHER OR OBSTRUCTIONS TO VISION.

      THIS PRODUCT IS RELEASED AS TWO VERSIONS.  ONE VERSION NEAR
      THE TOP OF THE HOUR CONTAINING PRELIMINARY DATA FROM ALBUQUERQUE
      AND OTHER STATIONS.  A FINAL VERSION WITH ADDITIONAL DATA IS
      ISSUED ABOUT 10 MINUTES AFTER THE HOUR.

NMZ501-503-504-510>518-220600-
NORTHWEST PLATEAU/NORTHCENTRAL MOUNTAINS

CITY           SKY/WX    TMP DP  RH WIND       PRES   REMARKS
FARMINGTON     MOCLDY    74  39  28 W23G30    30.14R
LOS ALAMOS     CLOUDY    71  35  26 SW8       30.25F
SANTA FE       MOCLDY    69  36  29 E6        30.18F
TAOS           MOCLDY    61  34  36 E9        30.25S
ANGEL FIRE     FAIR      49  39  69 CALM      30.36F

$$
NMZ402-403-502-505>509-220600-
WESTCENTRAL MOUNTAINS/SOUTHWEST MOUNTAINS

CITY           SKY/WX    TMP DP  RH WIND       PRES   REMARKS
GALLUP         CLOUDY    60  50  69 SW5       30.26F
SILVER CITY    CLOUDY    72  52  49 NW10      30.19S

$$
NMZ407-409-411-412-220600-
SOUTHERN DESERTS

CITY           SKY/WX    TMP DP  RH WIND       PRES   REMARKS
LORDSBURG      FAIR      73  50  43 W9        30.12S
DEMING         CLOUDY    79  52  38 SW12      30.10R
LAS CRUCES     CLOUDY    76  56  50 S17G23    30.12R
HOLLOMAN AFB   MOCLDY    83  53  35 S15G25    30.05R
ALAMOGORDO     CLOUDY    82  54  36 S16G29    30.08R
T OR C         MOCLDY    80  45  28 SW6       30.09R

$$
NMZ519>523-220600-
CENTRAL VALLEYS/CENTRAL HIGHLANDS

CITY           SKY/WX    TMP DP  RH WIND       PRES   REMARKS
ALBUQUERQUE    CLOUDY    78  40  25 SW8G17    30.12S
DOUBLE EAGLE   CLOUDY    73  40  30 SW3       30.16R
MORIARTY ARPT  FAIR      58  44  59 CALM      30.20S
CLINES CORNERS PTCLDY    64  40  41 S13       30.25S
BELEN          FAIR      74  47  38 W10       30.11S
SOCORRO        FAIR      74  44  33 N5        30.08S

$$
NMZ524>526-539-540-220600-
SOUTHCENTRAL MOUNTAINS

CITY           SKY/WX    TMP DP  RH WIND       PRES   REMARKS
RUIDOSO        CLOUDY    66  45  45 CALM      30.27S

$$
NMZ527>531-220600-
NORTHEAST HIGHLANDS/NORTHEAST PLAINS

CITY           SKY/WX    TMP DP  RH WIND       PRES   REMARKS
LAS VEGAS      PTCLDY    63  40  42 SW9       30.23S
RATON          PTCLDY    69  40  34 S6        30.16S
CLAYTON        CLEAR     69  53  56 S8        30.07F

$$
NMZ532>537-220600-
EASTCENTRAL PLAINS

CITY           SKY/WX    TMP DP  RH WIND       PRES   REMARKS
TUCUMCARI      CLEAR     78  46  32 SW7       30.00S
CANNON AFB     PTCLDY    78  55  44 S16       30.08R
CLOVIS AIRPORT   N/A     75  54  46 S12       30.10R

$$
NMZ028-029-538-220600-
SOUTHEAST PLAINS

CITY           SKY/WX    TMP DP  RH WIND       PRES   REMARKS
ROSWELL        MOCLDY    85  57  38 S15G25    30.01R
ARTESIA        MOCLDY    84  54  34 S10G20    30.02S
CARLSBAD       PTCLDY    83  58  42 SE15      30.01R
HOBBS          MOCLDY    77  57  50 S13       30.08S


$$



USA.gov is the U.S. government's official web portal to all federal, state and local government web resources and services.